Location: Observatoire
(46.1952°N, 5.3391°E)
Time: 13:04:41
(UTC+01:00)

Explorer 7 - Pass Details

Date: 26 February 2026
Orbit: 430 x 540 km, 50.2° (Epoch: 17 March)

Event Time Altitude Azimuth Distance (km) Brightness Sun altitude
Rises 12:25:50 0° 227° (SW) 2,383 10.5 34.9°
Reaches altitude 10° 12:27:59 10° 220° (SW) 1,522 9.8 34.9°
Maximum altitude 12:31:15 44° 147° (SSE) 612 8.7 35.0°
Drops below altitude 10° 12:34:35 10° 74° (ENE) 1,555 9.1 35.1°
Sets 12:36:47 0° 68° (ENE) 2,443 10.0 35.1°
